Location: Bauerbach
(50.4985°N, 10.3912°E)
Time: 08:42:06
(UTC+00:00)

Cosmos 1515 Rocket - Pass Details

Date: 13 January 2026
Orbit: 599 x 623 km, 82.5° (Epoch: 14 February)

Event Time Altitude Azimuth Distance (km) Brightness Sun altitude
Exits shadow 05:06:09 47° 280° (W) 822 3.7 -19.7°
Maximum altitude 05:06:27 48° 266° (W) 812 3.7 -19.6°
Drops below altitude 10° 05:10:39 10° 192° (SSW) 1,974 6.1 -19.0°
Sets 05:12:54 0° 187° (S) 2,871 7.0 -18.6°
